Time,TemperatureF,DewpointF,PressureIn,WindDirection,WindDirectionDegrees,WindSpeedMPH,WindSpeedGustMPH,Humidity,HourlyPrecipIn,Conditions,Clouds,dailyrainin,SoftwareType,DateUTC
2013-06-25 00:01:00,64.0,29.0,30.09,SW,217,8.0,17.0,27,0.00,,,0.00,,2013-06-25 06:01:00,
2013-06-25 00:11:00,64.0,29.0,30.09,SW,217,8.0,17.0,27,0.00,,,0.00,,2013-06-25 06:11:00,
2013-06-25 00:21:00,63.0,29.0,30.09,South,189,12.0,19.0,28,0.00,,,0.00,,2013-06-25 06:21:00,
2013-06-25 00:33:00,63.0,30.0,30.09,SSE,167,8.0,20.0,29,0.00,,,0.00,,2013-06-25 06:33:00,
2013-06-25 00:43:00,63.0,30.0,30.09,SSE,167,8.0,20.0,29,0.00,,,0.00,,2013-06-25 06:43:00,
2013-06-25 00:52:00,62.0,29.0,30.08,West,259,6.0,11.0,29,0.00,,,0.00,,2013-06-25 06:52:00,
2013-06-25 01:02:00,62.0,29.0,30.08,WSW,257,6.0,15.0,29,0.00,,,0.00,,2013-06-25 07:02:00,
2013-06-25 01:11:00,62.0,29.0,30.08,WSW,257,6.0,15.0,29,0.00,,,0.00,,2013-06-25 07:11:00,
2013-06-25 01:22:00,61.0,29.0,30.08,South,182,2.0,10.0,29,0.00,,,0.00,,2013-06-25 07:22:00,
2013-06-25 01:33:00,60.0,29.0,30.08,SSW,206,5.0,11.0,31,0.00,,,0.00,,2013-06-25 07:33:00,
2013-06-25 01:43:00,60.0,29.0,30.08,SSW,206,5.0,11.0,31,0.00,,,0.00,,2013-06-25 07:43:00,
2013-06-25 01:52:00,60.0,30.0,30.08,SSE,168,1.0,13.0,32,0.00,,,0.00,,2013-06-25 07:52:00,
2013-06-25 02:01:00,58.0,29.0,30.09,SSW,198,1.0,4.0,33,0.00,,,0.00,,2013-06-25 08:01:00,
2013-06-25 02:11:00,58.0,29.0,30.09,SSW,198,1.0,4.0,33,0.00,,,0.00,,2013-06-25 08:11:00,
2013-06-25 02:21:00,58.0,30.0,30.09,SSW,199,1.0,4.0,34,0.00,,,0.00,,2013-06-25 08:21:00,
2013-06-25 02:34:00,57.0,29.0,30.09,SSW,211,3.0,5.0,34,0.00,,,0.00,,2013-06-25 08:34:00,
2013-06-25 02:43:00,57.0,29.0,30.09,SSW,211,3.0,5.0,34,0.00,,,0.00,,2013-06-25 08:43:00,
2013-06-25 02:53:00,57.0,30.0,30.08,SW,217,1.0,3.0,35,0.00,,,0.00,,2013-06-25 08:53:00,
2013-06-25 03:02:00,56.0,29.0,30.07,SW,217,0.0,2.0,35,0.00,,,0.00,,2013-06-25 09:02:00,
2013-06-25 03:12:00,56.0,29.0,30.07,SW,217,0.0,2.0,35,0.00,,,0.00,,2013-06-25 09:12:00,
2013-06-25 03:21:00,55.0,30.0,30.07,SW,220,4.0,9.0,38,0.00,,,0.00,,2013-06-25 09:21:00,
2013-06-25 03:33:00,54.0,30.0,30.09,SW,214,2.0,6.0,39,0.00,,,0.00,,2013-06-25 09:33:00,
2013-06-25 03:43:00,54.0,30.0,30.09,SW,214,2.0,6.0,39,0.00,,,0.00,,2013-06-25 09:43:00,
2013-06-25 03:53:00,53.0,30.0,30.07,South,190,1.0,5.0,41,0.00,,,0.00,,2013-06-25 09:53:00,
2013-06-25 04:01:00,53.0,29.0,30.08,WSW,237,2.0,3.0,39,0.00,,,0.00,,2013-06-25 10:01:00,
2013-06-25 04:11:00,53.0,29.0,30.08,WSW,237,2.0,3.0,39,0.00,,,0.00,,2013-06-25 10:11:00,
2013-06-25 04:21:00,54.0,29.0,30.09,West,265,4.0,6.0,38,0.00,,,0.00,,2013-06-25 10:21:00,
2013-06-25 04:33:00,54.0,29.0,30.10,WSW,248,3.0,7.0,38,0.00,,,0.00,,2013-06-25 10:33:00,
2013-06-25 04:42:00,54.0,29.0,30.10,WSW,248,3.0,7.0,38,0.00,,,0.00,,2013-06-25 10:42:00,
2013-06-25 04:52:00,52.0,28.0,30.10,SSW,210,3.0,5.0,40,0.00,,,0.00,,2013-06-25 10:52:00,
2013-06-25 05:02:00,51.0,29.0,30.11,SSW,207,1.0,5.0,42,0.00,,,0.00,,2013-06-25 11:02:00,
2013-06-25 05:11:00,51.0,29.0,30.11,SSW,207,1.0,5.0,42,0.00,,,0.00,,2013-06-25 11:11:00,
2013-06-25 05:22:00,52.0,29.0,30.10,SSW,205,0.0,4.0,41,0.00,,,0.00,,2013-06-25 11:22:00,
2013-06-25 05:34:00,53.0,30.0,30.10,WSW,245,5.0,10.0,41,0.00,,,0.00,,2013-06-25 11:34:00,
2013-06-25 05:43:00,53.0,30.0,30.10,WSW,245,5.0,10.0,41,0.00,,,0.00,,2013-06-25 11:43:00,
2013-06-25 05:52:00,54.0,31.0,30.11,SW,234,0.0,5.0,41,0.00,,,0.00,,2013-06-25 11:52:00,
2013-06-25 06:01:00,54.0,33.0,30.12,SW,217,0.0,7.0,44,0.00,,,0.00,,2013-06-25 12:01:00,
2013-06-25 06:11:00,54.0,33.0,30.12,SW,217,0.0,7.0,44,0.00,,,0.00,,2013-06-25 12:11:00,
2013-06-25 06:22:00,53.0,33.0,30.13,South,177,6.0,12.0,46,0.00,,,0.00,,2013-06-25 12:22:00,
2013-06-25 06:33:00,53.0,33.0,30.11,South,175,3.0,7.0,47,0.00,,,0.00,,2013-06-25 12:33:00,
2013-06-25 06:43:00,53.0,33.0,30.11,South,175,3.0,7.0,47,0.00,,,0.00,,2013-06-25 12:43:00,
2013-06-25 06:55:00,55.0,35.0,30.12,SSW,206,4.0,10.0,46,0.00,,,0.00,,2013-06-25 12:55:00,
2013-06-25 07:01:00,56.0,36.0,30.10,SSW,195,2.0,12.0,46,0.00,,,0.00,,2013-06-25 13:01:00,
2013-06-25 07:11:00,56.0,36.0,30.10,SSW,195,2.0,12.0,46,0.00,,,0.00,,2013-06-25 13:11:00,
2013-06-25 07:22:00,57.0,35.0,30.11,WSW,240,10.0,18.0,44,0.00,,,0.00,,2013-06-25 13:22:00,
2013-06-25 07:34:00,58.0,36.0,30.11,SW,217,10.0,16.0,43,0.00,,,0.00,,2013-06-25 13:34:00,
2013-06-25 07:42:00,58.0,36.0,30.11,SW,217,10.0,16.0,43,0.00,,,0.00,,2013-06-25 13:42:00,
2013-06-25 07:53:00,59.0,36.0,30.11,SSW,211,7.0,25.0,42,0.00,,,0.00,,2013-06-25 13:53:00,
2013-06-25 08:01:00,60.0,36.0,30.12,West,265,9.0,26.0,41,0.00,,,0.00,,2013-06-25 14:01:00,
2013-06-25 08:11:00,60.0,36.0,30.12,West,265,9.0,26.0,41,0.00,,,0.00,,2013-06-25 14:11:00,
2013-06-25 08:22:00,61.0,36.0,30.14,WNW,301,10.0,22.0,40,0.00,,,0.00,,2013-06-25 14:22:00,
2013-06-25 08:34:00,62.0,37.0,30.16,SSW,209,8.0,20.0,39,0.00,,,0.00,,2013-06-25 14:34:00,
2013-06-25 08:43:00,62.0,37.0,30.16,SSW,209,8.0,20.0,39,0.00,,,0.00,,2013-06-25 14:43:00,
2013-06-25 08:53:00,62.0,37.0,30.14,West,271,13.0,23.0,39,0.00,,,0.00,,2013-06-25 14:53:00,
2013-06-25 09:01:00,63.0,38.0,30.15,SSW,201,9.0,22.0,39,0.00,,,0.00,,2013-06-25 15:01:00,
2013-06-25 09:11:00,63.0,38.0,30.15,SSW,201,9.0,22.0,39,0.00,,,0.00,,2013-06-25 15:11:00,
2013-06-25 09:22:00,63.0,37.0,30.16,SW,229,10.0,18.0,38,0.00,,,0.00,,2013-06-25 15:22:00,
2013-06-25 09:32:00,63.0,37.0,30.17,WNW,302,11.0,21.0,38,0.00,,,0.00,,2013-06-25 15:32:00,
2013-06-25 09:44:00,63.0,37.0,30.17,WNW,302,11.0,21.0,38,0.00,,,0.00,,2013-06-25 15:44:00,
2013-06-25 09:53:00,64.0,38.0,30.17,WSW,244,10.0,22.0,38,0.00,,,0.00,,2013-06-25 15:53:00,
2013-06-25 10:03:00,65.0,38.0,30.15,SSW,192,5.0,22.0,37,0.00,,,0.00,,2013-06-25 16:03:00,
2013-06-25 10:12:00,65.0,38.0,30.15,SSW,192,5.0,22.0,37,0.00,,,0.00,,2013-06-25 16:12:00,
2013-06-25 10:23:00,67.0,38.0,30.16,WSW,246,15.0,22.0,34,0.00,,,0.00,,2013-06-25 16:23:00,
2013-06-25 10:35:00,67.0,36.0,30.18,West,279,6.0,18.0,32,0.00,,,0.00,,2013-06-25 16:35:00,
2013-06-25 10:44:00,67.0,36.0,30.18,West,279,6.0,18.0,32,0.00,,,0.00,,2013-06-25 16:44:00,
2013-06-25 10:52:00,68.0,38.0,30.17,South,169,10.0,15.0,33,0.00,,,0.00,,2013-06-25 16:52:00,
2013-06-25 11:01:00,68.0,37.0,30.17,SW,232,11.0,24.0,32,0.00,,,0.00,,2013-06-25 17:01:00,
2013-06-25 11:11:00,68.0,37.0,30.17,SW,232,11.0,24.0,32,0.00,,,0.00,,2013-06-25 17:11:00,
2013-06-25 11:22:00,69.0,37.0,30.17,SSW,203,6.0,17.0,31,0.00,,,0.00,,2013-06-25 17:22:00,
2013-06-25 11:33:00,69.0,37.0,30.19,WSW,241,12.0,18.0,31,0.00,,,0.00,,2013-06-25 17:33:00,
2013-06-25 11:44:00,69.0,37.0,30.19,WSW,241,12.0,18.0,31,0.00,,,0.00,,2013-06-25 17:44:00,
2013-06-25 11:53:00,69.0,37.0,30.18,SSW,206,9.0,22.0,31,0.00,,,0.00,,2013-06-25 17:53:00,
2013-06-25 12:02:00,70.0,37.0,30.17,SW,224,12.0,21.0,30,0.00,,,0.00,,2013-06-25 18:02:00,
2013-06-25 12:12:00,70.0,37.0,30.17,SW,224,12.0,21.0,30,0.00,,,0.00,,2013-06-25 18:12:00,
2013-06-25 12:22:00,70.0,36.0,30.18,WSW,241,12.0,20.0,29,0.00,,,0.00,,2013-06-25 18:22:00,
2013-06-25 12:34:00,70.0,37.0,30.17,SSW,198,16.0,25.0,30,0.00,,,0.00,,2013-06-25 18:34:00,
2013-06-25 12:44:00,70.0,37.0,30.17,SSW,198,16.0,25.0,30,0.00,,,0.00,,2013-06-25 18:44:00,
2013-06-25 12:53:00,70.0,36.0,30.15,SSW,202,10.0,24.0,29,0.00,,,0.00,,2013-06-25 18:53:00,
2013-06-25 13:01:00,70.0,36.0,30.17,WSW,256,12.0,24.0,29,0.00,,,0.00,,2013-06-25 19:01:00,
2013-06-25 13:12:00,70.0,36.0,30.17,WSW,256,12.0,24.0,29,0.00,,,0.00,,2013-06-25 19:12:00,
2013-06-25 13:22:00,72.0,35.0,30.16,WSW,249,13.0,24.0,26,0.00,,,0.00,,2013-06-25 19:22:00,
2013-06-25 13:33:00,71.0,36.0,30.16,SSW,213,10.0,22.0,28,0.00,,,0.00,,2013-06-25 19:33:00,
2013-06-25 13:44:00,71.0,36.0,30.16,SSW,213,10.0,22.0,28,0.00,,,0.00,,2013-06-25 19:44:00,
2013-06-25 13:54:00,70.0,34.0,30.16,West,261,13.0,24.0,27,0.00,,,0.00,,2013-06-25 19:54:00,
2013-06-25 14:02:00,71.0,39.0,30.16,SW,229,12.0,19.0,31,0.00,,,0.00,,2013-06-25 20:02:00,
2013-06-25 14:11:00,71.0,39.0,30.16,SW,229,12.0,19.0,31,0.00,,,0.00,,2013-06-25 20:11:00,
2013-06-25 14:22:00,73.0,38.0,30.17,SW,236,16.0,27.0,28,0.00,,,0.00,,2013-06-25 20:22:00,
2013-06-25 14:33:00,72.0,37.0,30.17,West,263,15.0,24.0,28,0.00,,,0.00,,2013-06-25 20:33:00,
2013-06-25 14:42:00,72.0,37.0,30.17,West,263,15.0,24.0,28,0.00,,,0.00,,2013-06-25 20:42:00,
2013-06-25 14:52:00,73.0,37.0,30.19,WSW,237,10.0,27.0,27,0.00,,,0.00,,2013-06-25 20:52:00,
2013-06-25 15:01:00,73.0,38.0,30.17,SSW,212,16.0,25.0,28,0.00,,,0.00,,2013-06-25 21:01:00,
2013-06-25 15:11:00,73.0,38.0,30.17,SSW,212,16.0,25.0,28,0.00,,,0.00,,2013-06-25 21:11:00,
2013-06-25 15:22:00,73.0,39.0,30.17,South,179,13.0,24.0,29,0.00,,,0.00,,2013-06-25 21:22:00,
2013-06-25 15:33:00,73.0,39.0,30.20,SW,219,6.0,23.0,29,0.00,,,0.00,,2013-06-25 21:33:00,
2013-06-25 15:43:00,73.0,39.0,30.20,SW,219,6.0,23.0,29,0.00,,,0.00,,2013-06-25 21:43:00,
2013-06-25 15:53:00,74.0,38.0,30.18,SSW,212,15.0,21.0,27,0.00,,,0.00,,2013-06-25 21:53:00,
2013-06-25 16:01:00,73.0,37.0,30.20,SW,221,14.0,19.0,27,0.00,,,0.00,,2013-06-25 22:01:00,
2013-06-25 16:11:00,73.0,37.0,30.20,SW,221,14.0,19.0,27,0.00,,,0.00,,2013-06-25 22:11:00,
2013-06-25 16:22:00,72.0,37.0,30.20,WNW,292,11.0,22.0,28,0.00,,,0.00,,2013-06-25 22:22:00,
2013-06-25 16:33:00,72.0,37.0,30.19,SSW,208,10.0,19.0,28,0.00,,,0.00,,2013-06-25 22:33:00,
2013-06-25 16:42:00,72.0,37.0,30.19,SSW,208,10.0,19.0,28,0.00,,,0.00,,2013-06-25 22:42:00,
2013-06-25 16:52:00,73.0,37.0,30.19,SW,230,13.0,20.0,27,0.00,,,0.00,,2013-06-25 22:52:00,
2013-06-25 17:01:00,74.0,37.0,30.19,South,191,15.0,23.0,26,0.00,,,0.00,,2013-06-25 23:01:00,
2013-06-25 17:11:00,74.0,37.0,30.19,South,191,15.0,23.0,26,0.00,,,0.00,,2013-06-25 23:11:00,
2013-06-25 17:22:00,73.0,35.0,30.19,West,275,13.0,20.0,25,0.00,,,0.00,,2013-06-25 23:22:00,
2013-06-25 17:34:00,72.0,35.0,30.20,SW,215,8.0,30.0,26,0.00,,,0.00,,2013-06-25 23:34:00,
2013-06-25 17:43:00,72.0,35.0,30.20,SW,215,8.0,30.0,26,0.00,,,0.00,,2013-06-25 23:43:00,
2013-06-25 17:52:00,73.0,37.0,30.20,South,180,8.0,21.0,27,0.00,,,0.00,,2013-06-25 23:52:00,
2013-06-25 18:02:00,72.0,35.0,30.20,West,275,9.0,22.0,26,0.00,,,0.00,,2013-06-26 00:02:00,
2013-06-25 18:11:00,72.0,35.0,30.20,West,275,9.0,22.0,26,0.00,,,0.00,,2013-06-26 00:11:00,
2013-06-25 18:22:00,72.0,35.0,30.20,SW,222,12.0,21.0,26,0.00,,,0.00,,2013-06-26 00:22:00,
2013-06-25 18:33:00,73.0,36.0,30.20,WSW,241,9.0,15.0,26,0.00,,,0.00,,2013-06-26 00:33:00,
2013-06-25 18:42:00,73.0,36.0,30.20,WSW,241,9.0,15.0,26,0.00,,,0.00,,2013-06-26 00:42:00,
2013-06-25 18:52:00,71.0,35.0,30.20,SW,235,10.0,20.0,27,0.00,,,0.00,,2013-06-26 00:52:00,
2013-06-25 19:01:00,71.0,35.0,30.21,West,261,12.0,21.0,27,0.00,,,0.00,,2013-06-26 01:01:00,
2013-06-25 19:11:00,71.0,35.0,30.21,West,261,12.0,21.0,27,0.00,,,0.00,,2013-06-26 01:11:00,
2013-06-25 19:22:00,70.0,34.0,30.21,SW,221,9.0,22.0,27,0.00,,,0.00,,2013-06-26 01:22:00,
2013-06-25 19:33:00,70.0,34.0,30.22,West,265,10.0,18.0,27,0.00,,,0.00,,2013-06-26 01:33:00,
2013-06-25 19:43:00,70.0,34.0,30.22,West,265,10.0,18.0,27,0.00,,,0.00,,2013-06-26 01:43:00,
2013-06-25 19:53:00,70.0,34.0,30.22,SW,223,8.0,19.0,27,0.00,,,0.00,,2013-06-26 01:53:00,
2013-06-25 20:02:00,70.0,34.0,30.22,SW,221,7.0,15.0,27,0.00,,,0.00,,2013-06-26 02:02:00,
2013-06-25 20:11:00,70.0,34.0,30.22,SW,221,7.0,15.0,27,0.00,,,0.00,,2013-06-26 02:11:00,
2013-06-25 20:22:00,70.0,34.0,30.23,WSW,240,7.0,17.0,27,0.00,,,0.00,,2013-06-26 02:22:00,
2013-06-25 20:34:00,69.0,35.0,30.22,SW,218,6.0,14.0,28,0.00,,,0.00,,2013-06-26 02:34:00,
2013-06-25 20:43:00,69.0,35.0,30.22,SW,218,6.0,14.0,28,0.00,,,0.00,,2013-06-26 02:43:00,
2013-06-25 20:53:00,68.0,35.0,30.24,SW,223,2.0,11.0,29,0.00,,,0.00,,2013-06-26 02:53:00,
2013-06-25 21:02:00,67.0,34.0,30.24,SW,221,2.0,10.0,29,0.00,,,0.00,,2013-06-26 03:02:00,
2013-06-25 21:11:00,67.0,34.0,30.24,SW,221,2.0,10.0,29,0.00,,,0.00,,2013-06-26 03:11:00,
2013-06-25 21:22:00,66.0,34.0,30.23,SW,225,1.0,9.0,31,0.00,,,0.00,,2013-06-26 03:22:00,
2013-06-25 21:33:00,64.0,34.0,30.24,SW,226,7.0,11.0,33,0.00,,,0.00,,2013-06-26 03:33:00,
2013-06-25 21:43:00,64.0,34.0,30.24,SW,226,7.0,11.0,33,0.00,,,0.00,,2013-06-26 03:43:00,
2013-06-25 21:52:00,65.0,34.0,30.24,West,268,7.0,14.0,32,0.00,,,0.00,,2013-06-26 03:52:00,
2013-06-25 22:01:00,66.0,34.0,30.26,West,275,9.0,14.0,31,0.00,,,0.00,,2013-06-26 04:01:00,
2013-06-25 22:12:00,66.0,34.0,30.26,West,275,9.0,14.0,31,0.00,,,0.00,,2013-06-26 04:12:00,
2013-06-25 22:22:00,65.0,34.0,30.27,West,278,4.0,11.0,31,0.00,,,0.00,,2013-06-26 04:22:00,
2013-06-25 22:33:00,65.0,34.0,30.27,West,278,4.0,11.0,31,0.00,,,0.00,,2013-06-26 04:33:00,
2013-06-25 22:43:00,64.0,34.0,30.26,West,267,7.0,14.0,32,0.00,,,0.00,,2013-06-26 04:43:00,
2013-06-25 22:53:00,63.0,33.0,30.27,West,271,4.0,11.0,33,0.00,,,0.00,,2013-06-26 04:53:00,
2013-06-25 23:02:00,63.0,33.0,30.28,WNW,298,6.0,16.0,33,0.00,,,0.00,,2013-06-26 05:02:00,
2013-06-25 23:11:00,63.0,33.0,30.28,WNW,298,6.0,16.0,33,0.00,,,0.00,,2013-06-26 05:11:00,
2013-06-25 23:22:00,62.0,33.0,30.28,WNW,299,6.0,13.0,34,0.00,,,0.00,,2013-06-26 05:22:00,
2013-06-25 23:34:00,62.0,34.0,30.28,West,279,7.0,14.0,35,0.00,,,0.00,,2013-06-26 05:34:00,
2013-06-25 23:43:00,62.0,34.0,30.28,West,279,7.0,14.0,35,0.00,,,0.00,,2013-06-26 05:43:00,
2013-06-25 23:52:00,61.0,33.0,30.27,WSW,254,11.0,15.0,35,0.00,,,0.00,,2013-06-26 05:52:00,